Location: Saint-Hippolyte
(43.6394°N, 4.7559°E)
Time: 14:44:29
(UTC+00:00)

Cosmos 2263 Rocket - Pass Details

Date: 24 October 2020
Orbit: 822 x 850 km, 71.0° (Epoch: 23 November)

Event Time Altitude Azimuth Distance (km) Brightness Sun altitude
Rises 20:01:50 0° 337° (NNW) 3,419 5.9 -36.3°
Reaches altitude 10° 20:04:20 10° 342° (NNW) 2,482 5.0 -36.7°
Enters shadow 20:05:51 19° 347° (NNW) 1,940 4.3 -37.0°
